This is the latest recevied weather packets stored in our database for station/object XQ6AK-15. If no packets are shown the sender has not sent any weather packets the latest 10 day(s).
| Time | Temp. | Humidity | Pressure | Rain* | Wind** | Luminosity | Snow |
|---|---|---|---|---|---|---|---|
| 1787870743 | 7.78° C | 99% | 1002.9 hPa | 0 mm | - | 0 W/m² | - |
| 1787870439 | 7.78° C | 99% | 1002.9 hPa | 0 mm | - | 0 W/m² | - |
| 1787870138 | 7.78° C | 99% | 1003 hPa | 0 mm | - | 0 W/m² | - |
| 1787869833 | 7.78° C | 99% | 1002.9 hPa | 0 mm | - | 0 W/m² | - |
| 1787869532 | 7.78° C | 99% | 1002.7 hPa | 0 mm | - | 1 W/m² | - |
| 1787869227 | 7.78° C | 99% | 1002.9 hPa | 0 mm | - | 3 W/m² | - |
| 1787868921 | 7.78° C | 99% | 1003.1 hPa | 1.78 mm | - | 3 W/m² | - |
| 1787868620 | 7.78° C | 99% | 1003 hPa | 0 mm | - | 3 W/m² | - |
| 1787868318 | 7.78° C | 99% | 1002.8 hPa | 1.27 mm | - | 4 W/m² | - |
| 1787868014 | 7.78° C | 99% | 1002.8 hPa | 1.27 mm | - | 7 W/m² | - |
| 1787867709 | 7.78° C | 99% | 1002.8 hPa | 0 mm | - | 7 W/m² | - |
| 1787867404 | 7.78° C | 99% | 1002.8 hPa | 1.78 mm | - | 12 W/m² | - |
| 1787867100 | 7.78° C | 99% | 1002.6 hPa | 3.05 mm | - | 13 W/m² | - |
| 1787866795 | 7.78° C | 99% | 1002.4 hPa | 4.32 mm | - | 14 W/m² | - |
| 1787866494 | 7.78° C | 99% | 1002.5 hPa | 7.87 mm | - | 8 W/m² | - |
| 1787866192 | 7.78° C | 99% | 1002.7 hPa | 6.1 mm | - | 3 W/m² | - |
| 1787865888 | 7.78° C | 99% | 1003 hPa | 6.1 mm | - | 3 W/m² | - |
| 1787865583 | 7.78° C | 99% | 1003 hPa | 6.1 mm | - | 3 W/m² | - |
| 1787865278 | 7.78° C | 99% | 1003 hPa | 6.6 mm | - | 2 W/m² | - |
| 1787864974 | 7.78° C | 99% | 1002.9 hPa | 7.87 mm | - | 6 W/m² | - |
| 1787864670 | 7.78° C | 99% | 1002.9 hPa | 6.1 mm | - | 9 W/m² | - |
| 1787864369 | 8.33° C | 99% | 1002.9 hPa | 3.05 mm | - | 12 W/m² | - |
| 1787864063 | 8.33° C | 99% | 1002.9 hPa | 0 mm | - | 19 W/m² | - |
| 1787863762 | 8.33° C | 99% | 1002.7 hPa | 0 mm | - | 26 W/m² | - |
| 1787863461 | 8.33° C | 99% | 1002.4 hPa | 1.78 mm | - | 71 W/m² | - |
* Rain latest hour (hover to see other rain measurements)
** Current wind speed in m/s (hover to see current wind gust speed)